TimeEDT,TemperatureF,Dew PointF,Humidity,Sea Level PressureIn,VisibilityMPH,Wind Direction,Wind SpeedMPH,Gust SpeedMPH,PrecipitationIn,Events,Conditions,WindDirDegrees,DateUTC
12:53 AM,66.9,55.9,68,29.95,10.0,North,10.4,17.3,N/A,,Overcast,360,2013-07-25 04:53:00
1:53 AM,64.9,53.1,65,29.97,10.0,North,12.7,18.4,N/A,,Overcast,360,2013-07-25 05:53:00
2:53 AM,63.0,51.1,65,29.98,10.0,North,9.2,-,N/A,,Overcast,350,2013-07-25 06:53:00
3:53 AM,61.0,46.9,60,29.99,10.0,North,13.8,20.7,N/A,,Overcast,10,2013-07-25 07:53:00
4:53 AM,61.0,46.9,60,30.00,10.0,North,10.4,18.4,N/A,,Overcast,360,2013-07-25 08:53:00
5:53 AM,60.1,46.9,62,30.01,10.0,North,10.4,-,N/A,,Overcast,10,2013-07-25 09:53:00
6:53 AM,60.1,48.0,64,30.02,10.0,North,5.8,-,N/A,,Overcast,10,2013-07-25 10:53:00
7:53 AM,60.1,48.0,64,30.04,10.0,North,8.1,-,N/A,,Overcast,10,2013-07-25 11:53:00
8:53 AM,60.1,48.9,67,30.06,10.0,North,11.5,-,N/A,,Overcast,10,2013-07-25 12:53:00
9:53 AM,61.0,50.0,67,30.07,10.0,North,10.4,-,0.00,,Overcast,360,2013-07-25 13:53:00
10:53 AM,60.1,51.1,72,30.08,10.0,North,9.2,-,0.00,Rain,Light Rain,10,2013-07-25 14:53:00
11:53 AM,60.1,54.0,80,30.08,10.0,North,6.9,-,0.00,,Overcast,360,2013-07-25 15:53:00
12:53 PM,62.1,54.0,75,30.09,10.0,NNE,10.4,-,0.00,,Overcast,20,2013-07-25 16:53:00
1:53 PM,63.0,54.0,72,30.07,10.0,NNE,10.4,-,N/A,,Overcast,20,2013-07-25 17:53:00
2:01 PM,62.6,53.6,72,30.07,10.0,NE,8.1,-,N/A,,Overcast,40,2013-07-25 18:01:00
2:28 PM,64.4,55.4,73,30.07,10.0,NNE,10.4,-,N/A,,Overcast,30,2013-07-25 18:28:00
2:53 PM,64.9,55.0,70,30.06,10.0,NE,10.4,-,N/A,,Overcast,40,2013-07-25 18:53:00
3:53 PM,64.9,55.9,73,30.07,10.0,NNE,6.9,-,0.00,,Overcast,20,2013-07-25 19:53:00
4:53 PM,64.9,55.9,73,30.06,10.0,North,6.9,-,0.00,Rain,Light Rain,10,2013-07-25 20:53:00
5:53 PM,64.0,57.9,80,30.06,10.0,ENE,5.8,-,0.01,Rain,Light Rain,60,2013-07-25 21:53:00
6:53 PM,63.0,59.0,87,30.07,9.0,NNE,6.9,-,0.02,Rain,Light Rain,30,2013-07-25 22:53:00
7:53 PM,62.1,57.9,86,30.07,8.0,NNE,6.9,-,0.03,Rain,Light Rain,30,2013-07-25 23:53:00
8:53 PM,61.0,57.9,90,30.07,9.0,North,5.8,-,0.04,Rain,Light Rain,360,2013-07-26 00:53:00
9:53 PM,62.1,59.0,90,30.07,10.0,North,8.1,-,0.00,Rain,Light Rain,10,2013-07-26 01:53:00
10:53 PM,62.1,59.0,90,30.05,10.0,North,8.1,-,0.00,,Overcast,10,2013-07-26 02:53:00
11:53 PM,62.1,59.0,90,30.05,10.0,North,5.8,-,0.00,Rain,Light Rain,10,2013-07-26 03:53:00